TimePST,TemperatureF,Dew PointF,Humidity,Sea Level PressureIn,VisibilityMPH,Wind Direction,Wind SpeedMPH,Gust SpeedMPH,PrecipitationIn,Events,Conditions,WindDirDegrees,DateUTC
12:33 AM,44.6,44.6,100,30.05,10.0,South,6.9,-,N/A,,Overcast,170,2012-02-21 08:33:00
12:55 AM,46.0,45.9,99,30.04,10.0,SSW,11.5,-,N/A,,Overcast,200,2012-02-21 08:55:00
1:34 AM,48.2,46.4,93,30.05,10.0,SSW,12.7,-,N/A,,Overcast,200,2012-02-21 09:34:00
1:55 AM,47.3,47.1,99,30.04,10.0,South,13.8,-,N/A,,Overcast,190,2012-02-21 09:55:00
2:12 AM,48.2,46.4,93,30.04,10.0,SSW,15.0,-,N/A,,Overcast,200,2012-02-21 10:12:00
2:26 AM,48.2,46.4,93,30.04,10.0,South,15.0,-,N/A,,Overcast,190,2012-02-21 10:26:00
2:55 AM,47.3,47.1,99,30.04,10.0,South,12.7,-,N/A,,Overcast,190,2012-02-21 10:55:00
3:26 AM,48.2,46.4,93,30.05,8.0,SSW,13.8,-,N/A,,Overcast,200,2012-02-21 11:26:00
3:39 AM,48.2,46.4,93,30.05,10.0,SSW,12.7,-,N/A,,Overcast,200,2012-02-21 11:39:00
3:55 AM,47.3,47.1,99,30.05,10.0,SSW,12.7,-,N/A,,Overcast,200,2012-02-21 11:55:00
4:29 AM,48.2,46.4,93,30.06,10.0,SSW,13.8,21.9,N/A,Rain,Light Rain,200,2012-02-21 12:29:00
4:39 AM,48.2,46.4,93,30.07,10.0,SSW,15.0,-,N/A,,Overcast,210,2012-02-21 12:39:00
4:55 AM,47.5,47.3,99,30.07,10.0,SSW,13.8,-,0.00,,Overcast,200,2012-02-21 12:55:00
5:04 AM,48.2,46.4,93,30.06,10.0,SSW,12.7,-,N/A,Rain,Light Rain,200,2012-02-21 13:04:00
5:15 AM,48.2,46.4,93,30.06,10.0,SSW,15.0,21.9,N/A,Rain,Light Rain,200,2012-02-21 13:15:00
5:16 AM,48.2,46.4,93,30.06,10.0,SSW,15.0,21.9,N/A,,Overcast,200,2012-02-21 13:16:00
5:55 AM,47.7,47.3,99,30.07,10.0,SSW,19.6,24.2,0.00,,Overcast,210,2012-02-21 13:55:00
6:10 AM,48.2,46.4,93,30.06,10.0,SSW,17.3,26.5,N/A,,Overcast,200,2012-02-21 14:10:00
6:28 AM,48.2,46.4,93,30.06,10.0,SSW,15.0,23.0,N/A,,Overcast,210,2012-02-21 14:28:00
6:36 AM,48.2,46.4,93,30.07,10.0,SSW,12.7,-,N/A,,Overcast,210,2012-02-21 14:36:00
6:40 AM,48.2,46.4,93,30.07,10.0,SSW,16.1,-,N/A,,Overcast,210,2012-02-21 14:40:00
6:55 AM,47.8,47.1,97,30.08,10.0,SSW,13.8,-,N/A,,Overcast,200,2012-02-21 14:55:00
7:02 AM,48.2,46.4,93,30.08,10.0,SSW,18.4,-,N/A,,Overcast,200,2012-02-21 15:02:00
7:08 AM,48.2,46.4,93,30.08,10.0,SW,13.8,-,N/A,,Overcast,220,2012-02-21 15:08:00
7:13 AM,48.2,46.4,93,30.09,7.0,SSW,15.0,-,N/A,,Light Drizzle,210,2012-02-21 15:13:00
7:16 AM,48.2,46.4,93,30.09,6.0,SSW,13.8,-,N/A,,Light Drizzle,210,2012-02-21 15:16:00
7:24 AM,48.2,48.2,100,30.09,5.0,SSW,13.8,21.9,N/A,,Overcast,210,2012-02-21 15:24:00
7:26 AM,48.2,48.2,100,30.09,4.0,SSW,17.3,24.2,N/A,,Overcast,210,2012-02-21 15:26:00
7:29 AM,48.2,48.2,100,30.09,4.0,SSW,13.8,24.2,N/A,,Light Drizzle,210,2012-02-21 15:29:00
7:55 AM,47.7,47.5,99,30.09,6.0,SSW,17.3,24.2,0.01,Rain,Light Rain,200,2012-02-21 15:55:00
7:57 AM,48.2,48.2,100,30.09,6.0,SSW,16.1,24.2,N/A,Rain,Light Rain,200,2012-02-21 15:57:00
8:06 AM,48.2,48.2,100,30.10,10.0,SSW,15.0,-,N/A,,Overcast,210,2012-02-21 16:06:00
8:16 AM,48.2,48.2,100,30.09,10.0,SSW,15.0,21.9,N/A,,Overcast,210,2012-02-21 16:16:00
8:50 AM,48.2,48.2,100,30.11,10.0,SSW,15.0,-,N/A,,Overcast,200,2012-02-21 16:50:00
8:52 AM,48.2,48.2,100,30.11,10.0,SSW,17.3,-,N/A,,Overcast,210,2012-02-21 16:52:00
8:55 AM,48.2,47.7,98,30.11,10.0,SSW,15.0,-,0.00,,Overcast,210,2012-02-21 16:55:00
8:59 AM,48.2,48.2,100,30.11,9.0,SSW,13.8,-,N/A,Rain,Light Rain,200,2012-02-21 16:59:00
9:17 AM,48.2,48.2,100,30.11,10.0,SSW,15.0,-,N/A,,Overcast,200,2012-02-21 17:17:00
9:27 AM,48.2,48.2,100,30.12,10.0,SSW,13.8,-,N/A,,Overcast,210,2012-02-21 17:27:00
9:33 AM,48.2,48.2,100,30.12,10.0,SW,13.8,-,N/A,,Overcast,220,2012-02-21 17:33:00
9:41 AM,48.2,48.2,100,30.12,10.0,SSW,15.0,19.6,N/A,Rain,Light Rain,210,2012-02-21 17:41:00
9:55 AM,48.4,47.7,97,30.12,10.0,SSW,18.4,21.9,0.00,Rain,Light Rain,210,2012-02-21 17:55:00
9:59 AM,48.2,48.2,100,30.12,10.0,SSW,17.3,23.0,N/A,Rain,Light Rain,210,2012-02-21 17:59:00
10:01 AM,48.2,48.2,100,30.12,10.0,SSW,18.4,23.0,N/A,,Overcast,210,2012-02-21 18:01:00
10:55 AM,49.1,47.7,95,30.10,10.0,SSW,17.3,-,0.00,,Overcast,200,2012-02-21 18:55:00
11:48 AM,50.0,48.2,94,30.12,10.0,SSW,17.3,24.2,N/A,,Overcast,200,2012-02-21 19:48:00
11:51 AM,50.0,48.2,94,30.12,8.0,SSW,16.1,24.2,N/A,Rain,Light Rain,200,2012-02-21 19:51:00
11:55 AM,49.3,48.4,97,30.12,6.0,SSW,15.0,24.2,0.00,Rain,Light Rain,200,2012-02-21 19:55:00
11:57 AM,50.0,48.2,94,30.12,5.0,SSW,15.0,21.9,N/A,Rain,Light Rain,200,2012-02-21 19:57:00
12:00 PM,50.0,48.2,94,30.11,4.0,SSW,18.4,-,N/A,Rain,Light Rain,200,2012-02-21 20:00:00
12:02 PM,50.0,48.2,94,30.11,4.0,SSW,19.6,-,N/A,Rain,Light Rain,210,2012-02-21 20:02:00
12:13 PM,50.0,50.0,100,30.11,4.0,SSW,16.1,-,N/A,Rain,Light Rain,210,2012-02-21 20:13:00
12:14 PM,50.0,50.0,100,30.11,4.0,SSW,16.1,-,N/A,Rain,Light Rain,210,2012-02-21 20:14:00
12:21 PM,50.0,50.0,100,30.11,3.0,SSW,15.0,-,N/A,Rain,Light Rain,210,2012-02-21 20:21:00
12:25 PM,50.0,50.0,100,30.10,3.0,SSW,13.8,-,N/A,,Overcast,200,2012-02-21 20:25:00
12:26 PM,50.0,50.0,100,30.09,2.5,SSW,13.8,-,N/A,,Overcast,200,2012-02-21 20:26:00
12:28 PM,50.0,50.0,100,30.09,3.0,SSW,13.8,-,N/A,,Overcast,200,2012-02-21 20:28:00
12:30 PM,50.0,50.0,100,30.09,3.0,SSW,15.0,-,N/A,Rain,Light Rain,200,2012-02-21 20:30:00
12:36 PM,50.0,50.0,100,30.09,4.0,SSW,18.4,23.0,N/A,Rain,Light Rain,200,2012-02-21 20:36:00
12:40 PM,50.0,50.0,100,30.09,5.0,SSW,19.6,-,N/A,Rain,Light Rain,200,2012-02-21 20:40:00
12:43 PM,50.0,50.0,100,30.09,6.0,SSW,15.0,23.0,N/A,,Overcast,200,2012-02-21 20:43:00
12:46 PM,50.0,50.0,100,30.09,8.0,SSW,18.4,-,N/A,,Overcast,200,2012-02-21 20:46:00
12:47 PM,50.0,50.0,100,30.09,9.0,SSW,17.3,-,N/A,,Overcast,200,2012-02-21 20:47:00
12:53 PM,50.0,50.0,100,30.08,10.0,South,16.1,25.3,N/A,,Overcast,190,2012-02-21 20:53:00
12:55 PM,49.6,49.1,98,30.08,10.0,SSW,19.6,25.3,0.02,,Overcast,210,2012-02-21 20:55:00
1:05 PM,50.0,50.0,100,30.10,8.0,SSW,17.3,23.0,N/A,Rain,Light Rain,200,2012-02-21 21:05:00
1:29 PM,50.0,50.0,100,30.09,5.0,SSW,16.1,21.9,N/A,Rain,Light Rain,210,2012-02-21 21:29:00
1:32 PM,50.0,50.0,100,30.10,6.0,SSW,13.8,-,N/A,Rain,Light Rain,210,2012-02-21 21:32:00
1:33 PM,50.0,50.0,100,30.10,6.0,SSW,13.8,21.9,N/A,Rain,Light Rain,210,2012-02-21 21:33:00
1:35 PM,50.0,50.0,100,30.10,5.0,SSW,15.0,21.9,N/A,Rain,Light Rain,210,2012-02-21 21:35:00
1:36 PM,50.0,50.0,100,30.10,5.0,SSW,12.7,21.9,N/A,Rain,Light Rain,210,2012-02-21 21:36:00
1:42 PM,50.0,50.0,100,30.07,3.0,SSW,15.0,21.9,N/A,Rain,Rain,200,2012-02-21 21:42:00
1:53 PM,50.0,50.0,100,30.08,5.0,SSW,17.3,25.3,N/A,Rain,Light Rain,210,2012-02-21 21:53:00
1:55 PM,49.6,49.5,99,30.09,6.0,SSW,15.0,25.3,0.13,Rain,Light Rain,210,2012-02-21 21:55:00
1:56 PM,50.0,50.0,100,30.09,7.0,SSW,15.0,25.3,N/A,Rain,Light Rain,210,2012-02-21 21:56:00
1:57 PM,50.0,50.0,100,30.09,8.0,SSW,15.0,25.3,N/A,Rain,Light Rain,210,2012-02-21 21:57:00
1:59 PM,50.0,50.0,100,30.09,9.0,SSW,18.4,-,N/A,Rain,Light Rain,210,2012-02-21 21:59:00
2:03 PM,50.0,50.0,100,30.09,10.0,SSW,16.1,-,N/A,Rain,Light Rain,210,2012-02-21 22:03:00
2:18 PM,50.0,50.0,100,30.10,8.0,SSW,20.7,26.5,N/A,Rain,Light Rain,210,2012-02-21 22:18:00
2:23 PM,50.0,50.0,100,30.09,7.0,SSW,19.6,26.5,N/A,Rain,Light Rain,200,2012-02-21 22:23:00
2:31 PM,50.0,50.0,100,30.08,8.0,SSW,23.0,-,N/A,Rain,Light Rain,210,2012-02-21 22:31:00
2:39 PM,50.0,50.0,100,30.10,10.0,SSW,18.4,27.6,N/A,,Overcast,210,2012-02-21 22:39:00
2:43 PM,50.0,50.0,100,30.10,10.0,SSW,19.6,27.6,N/A,,Overcast,210,2012-02-21 22:43:00
2:55 PM,50.4,49.5,97,30.08,10.0,SSW,18.4,32.2,0.01,Rain,Light Rain,210,2012-02-21 22:55:00
3:08 PM,50.0,50.0,100,30.09,8.0,SSW,20.7,31.1,N/A,Rain,Light Rain,210,2012-02-21 23:08:00
3:09 PM,50.0,50.0,100,30.09,8.0,SSW,20.7,29.9,N/A,Rain,Light Rain,210,2012-02-21 23:09:00
3:12 PM,50.0,50.0,100,30.09,9.0,SSW,19.6,27.6,N/A,Rain,Light Rain,210,2012-02-21 23:12:00
3:13 PM,50.0,50.0,100,30.09,10.0,SSW,18.4,27.6,N/A,Rain,Light Rain,210,2012-02-21 23:13:00
3:14 PM,50.0,50.0,100,30.09,10.0,SSW,20.7,27.6,N/A,Rain,Light Rain,210,2012-02-21 23:14:00
3:15 PM,50.0,50.0,100,30.09,10.0,SSW,19.6,27.6,N/A,,Overcast,210,2012-02-21 23:15:00
3:16 PM,50.0,50.0,100,30.09,10.0,SSW,19.6,27.6,N/A,,Overcast,210,2012-02-21 23:16:00
3:38 PM,50.0,50.0,100,30.09,10.0,SSW,20.7,29.9,N/A,,Overcast,210,2012-02-21 23:38:00
3:40 PM,50.0,50.0,100,30.09,10.0,SSW,19.6,29.9,N/A,,Overcast,210,2012-02-21 23:40:00
3:49 PM,50.0,50.0,100,30.10,10.0,SSW,16.1,27.6,N/A,,Overcast,210,2012-02-21 23:49:00
3:55 PM,50.2,49.1,96,30.09,10.0,SSW,18.4,29.9,0.00,,Overcast,210,2012-02-21 23:55:00
3:56 PM,50.0,48.2,94,30.09,10.0,SSW,20.7,29.9,N/A,,Overcast,210,2012-02-21 23:56:00
4:00 PM,50.0,48.2,94,30.09,10.0,SSW,20.7,29.9,N/A,,Overcast,210,2012-02-22 00:00:00
4:01 PM,50.0,48.2,94,30.09,10.0,SSW,19.6,28.8,N/A,,Overcast,210,2012-02-22 00:01:00
4:05 PM,50.0,48.2,94,30.09,10.0,SSW,21.9,28.8,N/A,,Overcast,200,2012-02-22 00:05:00
4:55 PM,49.6,48.6,96,30.09,10.0,SSW,17.3,26.5,N/A,,Overcast,200,2012-02-22 00:55:00
5:10 PM,50.0,48.2,94,30.10,10.0,SSW,19.6,27.6,N/A,,Overcast,200,2012-02-22 01:10:00
5:12 PM,50.0,48.2,94,30.10,10.0,SSW,17.3,25.3,N/A,,Overcast,200,2012-02-22 01:12:00
5:13 PM,50.0,48.2,94,30.10,10.0,SSW,17.3,25.3,N/A,,Overcast,200,2012-02-22 01:13:00
5:30 PM,50.0,48.2,94,30.11,10.0,SSW,17.3,23.0,N/A,,Overcast,200,2012-02-22 01:30:00
5:54 PM,50.0,48.2,94,30.12,10.0,SSW,17.3,-,N/A,Rain,Light Rain,210,2012-02-22 01:54:00
5:55 PM,49.1,48.4,97,30.12,10.0,SW,17.3,-,0.00,Rain,Light Rain,220,2012-02-22 01:55:00
6:04 PM,48.2,48.2,100,30.11,10.0,SSW,17.3,-,N/A,,Overcast,210,2012-02-22 02:04:00
6:11 PM,48.2,48.2,100,30.12,10.0,SSW,17.3,-,N/A,,Overcast,210,2012-02-22 02:11:00
6:17 PM,48.2,48.2,100,30.12,10.0,SSW,16.1,-,N/A,,Overcast,210,2012-02-22 02:17:00
6:55 PM,48.9,48.4,98,30.13,10.0,SSW,16.1,-,0.00,,Overcast,210,2012-02-22 02:55:00
7:06 PM,48.2,48.2,100,30.13,9.0,SSW,15.0,-,N/A,,Overcast,210,2012-02-22 03:06:00
7:08 PM,48.2,48.2,100,30.13,8.0,SSW,15.0,-,N/A,Rain,Light Rain,210,2012-02-22 03:08:00
7:33 PM,48.2,48.2,100,30.12,10.0,South,16.1,-,N/A,,Overcast,190,2012-02-22 03:33:00
7:55 PM,48.6,48.4,99,30.12,10.0,South,15.0,-,0.00,,Overcast,190,2012-02-22 03:55:00
8:13 PM,48.2,48.2,100,30.12,10.0,SSW,13.8,21.9,N/A,,Overcast,210,2012-02-22 04:13:00
8:37 PM,48.2,48.2,100,30.12,9.0,SSW,16.1,23.0,N/A,,Overcast,210,2012-02-22 04:37:00
8:51 PM,48.2,48.2,100,30.13,7.0,SSW,16.1,-,N/A,,Overcast,210,2012-02-22 04:51:00
8:55 PM,48.6,48.4,99,30.13,7.0,SSW,15.0,-,N/A,,Overcast,210,2012-02-22 04:55:00
9:13 PM,48.2,48.2,100,30.13,6.0,SSW,16.1,-,N/A,Rain,Light Rain,210,2012-02-22 05:13:00
9:27 PM,48.2,48.2,100,30.12,4.0,SSW,12.7,-,N/A,Rain,Light Rain,210,2012-02-22 05:27:00
9:36 PM,48.2,48.2,100,30.12,6.0,SSW,15.0,21.9,N/A,Rain,Light Rain,210,2012-02-22 05:36:00
9:47 PM,48.2,48.2,100,30.13,5.0,SSW,13.8,21.9,N/A,Rain,Light Rain,210,2012-02-22 05:47:00
9:50 PM,48.2,48.2,100,30.12,4.0,SSW,15.0,21.9,N/A,,Overcast,210,2012-02-22 05:50:00
9:55 PM,48.4,48.2,99,30.11,4.0,SSW,15.0,-,0.02,,Overcast,200,2012-02-22 05:55:00
9:56 PM,48.2,48.2,100,30.12,5.0,SSW,15.0,-,N/A,Rain,Light Rain,210,2012-02-22 05:56:00
10:03 PM,48.2,48.2,100,30.13,5.0,SW,12.7,-,N/A,Rain,Light Rain,230,2012-02-22 06:03:00
10:04 PM,48.2,48.2,100,30.13,5.0,SW,11.5,-,N/A,Rain,Light Rain,220,2012-02-22 06:04:00
10:14 PM,48.2,48.2,100,30.12,3.0,SSW,16.1,-,N/A,,Overcast,200,2012-02-22 06:14:00
10:26 PM,48.2,48.2,100,30.10,4.0,SSW,16.1,-,N/A,Rain,Light Rain,200,2012-02-22 06:26:00
10:55 PM,48.4,48.2,99,30.11,4.0,SW,13.8,-,0.03,Rain,Light Rain,220,2012-02-22 06:55:00
11:12 PM,48.2,48.2,100,30.10,2.5,SSW,13.8,25.3,N/A,Rain,Light Rain,210,2012-02-22 07:12:00
11:15 PM,48.2,48.2,100,30.11,3.0,SSW,13.8,25.3,N/A,Rain,Light Rain,210,2012-02-22 07:15:00
11:16 PM,48.2,48.2,100,30.11,3.0,SSW,12.7,-,N/A,,Overcast,210,2012-02-22 07:16:00
11:52 PM,48.2,48.2,100,30.09,5.0,SSW,13.8,-,N/A,Rain,Light Rain,210,2012-02-22 07:52:00
11:53 PM,48.2,48.2,100,30.09,6.0,SSW,13.8,-,N/A,Rain,Light Rain,210,2012-02-22 07:53:00
11:55 PM,48.4,48.2,99,30.09,6.0,SSW,17.3,-,0.04,Rain,Light Rain,200,2012-02-22 07:55:00